• Join FlightAware (Why Join?)
  • Login
  • US Flag GB Flag 
22:21 EST


 

Airport Tracker/Info


-or-


 

Live Flight TrackerFlight Track Log ✈ SWA2093 ✈ 13-Apr-2013 ✈ KPHX - KSFO

Flight Track Log - Related Links

Times and Time Zones

All times are in EDT time to prevent confusion due to time zone crossing. See the SWA2093 flight status page for this flight to view local times or setup timezone preferences in your user account.

Time Position Orientation Groundspeed Altitude Reporting Facility
EDT Latitude Longitude Course Direction KTS MPH feet Rate Location/Type
18:32 33.4333 -112.0500 224° Southwest 176 203 2,400  Level Phoenix TRACON
18:32 33.4244 -112.0603 224° Southwest 181 208 2,700 1,976 Climbing Albuquerque Center
18:33 33.4036 -112.1308 251° West 219 252 5,100 2,537 Climbing Albuquerque Center
18:34 33.3783 -112.2153 250° West 265 305 7,900 2,780 Climbing Albuquerque Center
18:35 33.3914 -112.3008 280° West 270 311 10,800 2,311 Climbing Albuquerque Center
18:36 33.4011 -112.4022 277° West 306 352 12,600 2,244 Climbing Albuquerque Center
18:37 33.4169 -112.5097 280° West 325 374 15,400 2,829 Climbing Albuquerque Center
18:38 33.4303 -112.6397 277° West 329 379 18,400 2,439 Climbing Albuquerque Center
18:39 33.4453 -112.7522 279° West 338 389 20,400 2,049 Climbing Albuquerque Center
18:40 33.4608 -112.8678 279° West 347 399 22,600 1,967 Climbing Albuquerque Center
18:41 33.4839 -112.9808 284° West 350 403 24,400 1,317 Climbing Albuquerque Center
18:42 33.5061 -113.0997 283° West 363 418 25,300 1,220 Climbing Albuquerque Center
18:43 33.5297 -113.2231 283° West 376 433 26,900 1,230 Climbing Albuquerque Center
18:44 33.5536 -113.3497 283° West 385 443 27,800 1,317 Climbing Albuquerque Center
18:45 33.5825 -113.5072 282° West 401 461 29,600 1,756 Climbing Albuquerque Center
18:46 33.6069 -113.6342 283° West 397 457 31,400 1,426 Climbing Albuquerque Center
18:47 33.6308 -113.7625 283° West 384 442 32,500 1,122 Climbing Albuquerque Center
18:48 33.6539 -113.8883 282° West 386 444 33,700 1,024 Climbing Albuquerque Center
18:49 33.6769 -114.0122 283° West 382 440 34,600 878 Climbing Albuquerque Center
18:51 33.7133 -114.1289 291° West 378 435 35,500 683 Climbing Albuquerque Center
18:52 33.7533 -114.2364 294° West 374 430 36,000 246 Climbing Albuquerque Center
18:53 33.7956 -114.3503 294° West 374 430 36,000  Level Albuquerque Center
18:54 33.8367 -114.4642 294° West 373 429 36,000  Level Albuquerque Center
18:55 33.8914 -114.6131 294° West 374 430 36,000  Level Los Angeles Center
18:56 33.9339 -114.7283 294° West 377 434 36,000  Level Los Angeles Center
18:57 33.9758 -114.8439 294° West 378 435 36,000 -48 Level Los Angeles Center
18:58 34.0250 -114.9822 293° West 377 434 35,900  Descending Los Angeles Center
18:59 34.0667 -115.0972 294° West 377 434 36,000 49 Climbing Los Angeles Center
19:00 34.1075 -115.2128 293° West 376 433 36,000  Level Los Angeles Center
19:01 34.1494 -115.3269 294° West 374 430 36,000  Level Los Angeles Center
19:02 34.1897 -115.4431 293° West 376 433 36,000  Level Los Angeles Center
19:03 34.2306 -115.5592 293° West 377 434 36,000 -49 Level Los Angeles Center
19:04 34.2717 -115.6753 293° West 377 434 35,900  Descending Los Angeles Center
19:05 34.3214 -115.8142 293° West 377 434 36,000 48 Climbing Los Angeles Center
19:06 34.3569 -115.9192 292° West 377 434 36,000  Level Los Angeles Center
19:07 34.3983 -116.0356 293° West 377 434 36,000  Level Los Angeles Center
19:08 34.4397 -116.1531 293° West 379 436 36,000  Level Los Angeles Center
19:09 34.4883 -116.2956 293° West 381 438 36,000  Level Los Angeles Center
19:10 34.5297 -116.4125 293° West 378 435 36,000  Level Los Angeles Center
19:11 34.5703 -116.5319 292° West 382 440 36,000  Level Los Angeles Center
19:12 34.6100 -116.6489 292° West 375 432 36,000  Level Los Angeles Center
19:13 34.6506 -116.7672 293° West 378 435 36,000  Level Los Angeles Center
19:14 34.6908 -116.8844 293° West 376 433 36,000  Level Los Angeles Center
19:15 34.7300 -117.0025 292° West 378 435 36,000  Level Los Angeles Center
19:16 34.7781 -117.1450 292° West 378 435 36,000  Level Los Angeles Center
19:17 34.8181 -117.2661 292° West 384 442 36,000  Level Los Angeles Center
19:18 34.8581 -117.3875 292° West 385 443 36,000  Level Los Angeles Center
19:19 34.8983 -117.5103 292° West 388 447 36,000  Level Los Angeles Center
19:21 34.9408 -117.6342 293° West 389 448 36,000  Level Los Angeles Center
19:22 34.9814 -117.7586 292° West 387 445 36,000  Level Los Angeles Center
19:23 35.0225 -117.8811 292° West 387 445 36,000  Level Los Angeles Center
19:24 35.0631 -118.0044 292° West 389 448 36,000  Level Los Angeles Center
19:25 35.1033 -118.1272 292° West 389 448 36,000 -341 Level Los Angeles Center
19:26 35.1508 -118.2731 292° West 385 443 35,300 -823 Descending Los Angeles Center
19:27 35.1889 -118.3922 291° West 379 436 34,300 -629 Descending Los Angeles Center
19:28 35.2278 -118.5125 292° West 381 438 34,000 -146 Descending Los Angeles Center
19:29 35.2667 -118.6319 292° West 379 436 34,000  Level Los Angeles Center
19:30 35.3053 -118.7550 291° West 387 445 34,000  Level Los Angeles Center
19:31 35.3439 -118.8775 291° West 390 449 34,000  Level Los Angeles Center
19:32 35.3831 -119.0031 291° West 394 453 34,000  Level Los Angeles Center
19:33 35.4225 -119.1558 288° West 392 451 34,000  Level Los Angeles Center
19:34 35.4500 -119.2850 285° West 394 453 34,000  Level Los Angeles Center
19:35 35.4842 -119.4378 285° West 390 449 34,000  Level Los Angeles Center
19:36 35.4931 -119.4744 287° West 392 451 34,000  Level Oakland Center
19:37 35.5208 -119.6031 285° West 391 450 34,000  Level Oakland Center
19:38 35.5489 -119.7297 285° West 388 447 34,000  Level Oakland Center
19:39 35.5831 -119.8856 285° West 395 455 34,000  Level Oakland Center
19:40 35.6108 -120.0156 285° West 396 456 34,000  Level Oakland Center
19:41 35.6403 -120.1431 286° West 391 450 34,000  Level Oakland Center
19:42 35.6678 -120.2744 284° West 397 457 34,000  Level Oakland Center
19:43 35.7061 -120.3997 291° West 397 457 34,000  Level Oakland Center
19:44 35.7539 -120.5236 295° West 400 460 34,000  Level Oakland Center
19:45 35.8025 -120.6464 296° West 401 461 34,000  Level Oakland Center
19:46 35.8511 -120.7694 296° West 401 461 34,000  Level Oakland Center
19:47 35.9033 -120.8931 298° West 407 468 34,000  Level Oakland Center
19:48 35.9828 -120.9889 316° Northwest 402 463 34,000  Level Oakland Center
19:49 36.0761 -121.1081 314° West 403 464 34,000  Level Oakland Center
19:50 36.1542 -121.2067 314° West 402 463 34,000 -49 Level Oakland Center
19:51 36.2311 -121.3031 315° West 395 455 33,900 -1,366 Descending Oakland Center
19:52 36.3069 -121.3997 314° West 395 455 31,200 -2,508 Descending Oakland Center
19:53 36.3819 -121.4983 313° West 393 452 28,800 -2,262 Descending Oakland Center
19:54 36.4553 -121.5906 315° West 378 435 26,600 -2,115 Descending Oakland Center
19:55 36.5247 -121.6806 314° West 361 415 24,500 -1,770 Descending Oakland Center
19:56 36.5908 -121.7628 315° West 335 386 23,000 -1,623 Descending Oakland Center
19:57 36.6517 -121.8425 314° West 319 367 21,200 -1,770 Descending Oakland Center
19:58 36.7117 -121.9183 315° West 312 359 19,400 -1,800 Descending Oakland Center
19:59 36.8000 -121.9833 329° Northwest 290 334 17,300 -1,628 Descending Northern Cal TRACON
20:00 36.8833 -122.0000 351° North 273 314 15,900 -1,474 Descending Northern Cal TRACON
20:01 36.9442 -122.0181 347° North 278 320 14,500 -1,565 Descending Oakland Center
20:02 37.0186 -122.0369 349° North 274 315 12,900 -1,574 Descending Oakland Center
20:03 37.0939 -122.0556 349° North 274 315 11,300 -1,475 Descending Oakland Center
20:04 37.1708 -122.0744 349° North 278 320 9,900 -689 Descending Oakland Center
20:05 37.2322 -122.1133 333° Northwest 267 307 9,900 -197 Level Oakland Center
20:06 37.2733 -122.1897 304° West 266 306 9,500 -443 Descending Oakland Center
20:07 37.3072 -122.2572 302° West 243 280 9,000 -787 Descending Oakland Center
20:08 37.3119 -122.3294 275° West 231 266 7,900 -541 Descending Oakland Center
20:09 37.3108 -122.4100 269° West 231 266 7,900  Level Oakland Center
20:10 37.3536 -122.4567 319° Northwest 223 257 7,900 -639 Level Oakland Center
20:11 37.3900 -122.3894 56° Northeast 226 260 6,600 -984 Descending Oakland Center
20:12 37.4022 -122.3044 80° East 237 273 5,900 -541 Descending Oakland Center
20:13 37.4133 -122.2208 80° East 243 280 5,500 -590 Descending Oakland Center
20:14 37.4242 -122.1364 81° East 245 282 4,700 -730 Descending Oakland Center
20:15 37.4500 -122.0833 58° Northeast 207 238 4,100 -316 Descending Northern Cal TRACON
20:16 37.5000 -122.1000 345° North 191 220 4,100 -250 Level Northern Cal TRACON
20:17 37.5333 -122.1667 302° West 180 207 3,600 -706 Descending Northern Cal TRACON
20:18 37.5500 -122.2000 302° West 148 170 2,700 -807 Descending Northern Cal TRACON
20:19 37.5667 -122.2500 293° West 134 154 2,000 -722 Descending Northern Cal TRACON
20:20 37.5828 -122.2919 296° West 137 158 1,100 -672 Descending Oakland Center
20:21 37.5978 -122.3294 297° West 128 147 500 -590 Descending Oakland Center